Theta_e
341 342 344 348 348 349 349 349 349 350 349 349 349 348 348 348 347 347 348 347 348 347 347 347 344 343 341 341 341 341 340 340 340 341 341 340 341 341 349 347 347 347 348 347 347 348 347 348 348 348 347 345 346 345 344 344 344 344 343 343 342 341 341 340 340 339 339 340 341 340 340 341 342 342 343 343 343 343 342 342 342 339 339 341 344
341 343 344 346 349 349 349 349 349 349 349 348 348 348 349 348 347 347 347 347 347 347 346 345 342 342 341 341 341 340 340 340 340 340 341 341 340 341 344 346 346 345 347 346 346 347 346 346 346 345 345 345 343 343 343 342 342 342 341 341 340 339 339 339 339 339 339 339 339 340 339 339 339 340 341 341 341 341 340 340 340 337 336 342 342
343 344 345 346 349 349 348 349 349 349 349 348 347 349 349 348 347 347 347 347 346 347 346 346 343 342 341 341 341 340 340 339 339 339 339 339 340 341 343 345 346 346 346 346 347 346 346 345 343 343 343 343 344 342 343 343 343 342 342 339 339 338 338 339 338 338 338 338 338 339 339 339 338 339 340 341 340 340 339 339 339 338 335 341 340
342 343 344 345 347 348 349 348 348 348 348 348 348 348 348 347 347 347 347 347 347 347 346 344 342 341 342 341 341 340 340 339 339 338 338 339 340 342 343 344 344 344 345 346 345 345 343 341 342 341 342 342 342 342 342 342 342 343 342 341 339 337 337 338 338 337 338 337 337 335 333 331 334 338 339 339 340 339 338 338 339 338 339 339 339
343 343 344 345 345 347 349 348 349 349 349 349 348 348 347 347 347 346 347 347 347 346 346 344 343 342 341 341 341 340 339 339 339 338 338 339 341 342 344 345 344 344 344 345 344 342 342 341 340 341 341 341 341 342 341 341 342 343 341 340 337 337 337 337 337 337 337 336 335 334 328 330 331 337 338 338 339 338 337 337 337 338 338 338 338
342 343 344 345 344 345 348 349 349 349 349 348 348 348 348 347 347 346 346 346 346 346 346 344 342 341 340 340 340 340 340 339 339 338 338 339 342 346 345 345 345 344 343 343 342 341 341 341 339 340 341 341 341 340 341 341 341 341 340 340 338 337 336 336 336 335 335 334 333 329 328 329 330 333 338 339 339 337 337 336 336 338 338 337 337
343 343 344 344 344 345 347 349 349 349 349 349 349 348 347 347 347 346 346 346 346 346 345 343 342 341 341 341 340 339 339 338 338 339 338 338 346 346 345 344 344 343 342 342 341 341 342 341 337 340 341 340 340 340 342 342 341 340 337 338 337 337 336 336 335 334 333 330 326 327 327 328 329 331 338 337 337 336 336 337 337 337 338 337 337
343 344 345 344 344 345 346 349 349 349 349 349 348 348 347 348 347 346 346 346 346 346 344 343 343 341 341 341 340 339 338 338 337 337 338 342 345 345 344 343 342 342 342 342 342 341 341 340 337 339 340 340 340 341 342 343 340 339 337 336 337 337 337 336 335 334 332 326 325 325 326 327 330 331 337 338 338 340 340 339 337 339 342 342 338
341 343 344 343 344 344 347 347 349 349 349 349 348 348 347 347 346 346 345 345 345 345 344 343 341 341 341 340 340 339 338 338 337 337 338 340 343 343 342 340 340 340 341 341 341 338 338 338 337 339 340 341 340 341 342 343 341 338 338 338 339 338 336 335 335 332 330 329 329 329 329 332 333 334 339 341 341 341 340 339 340 341 341 339 339
340 343 343 343 343 343 346 347 349 349 349 348 348 347 348 347 346 346 345 345 345 345 344 343 341 340 340 340 340 339 338 337 337 338 339 340 342 342 342 343 341 341 343 343 341 338 338 337 337 339 340 340 340 340 341 343 341 341 342 341 340 339 338 336 335 333 331 331 331 332 334 336 333 335 338 341 341 341 339 336 338 337 337 338 338
342 343 343 343 342 343 347 349 349 348 348 348 348 348 347 347 346 346 345 345 345 345 345 343 341 340 340 340 339 339 338 337 336 339 341 344 343 344 344 344 343 342 342 340 337 338 338 337 337 338 340 340 339 339 340 341 341 341 341 340 339 338 337 335 333 330 331 330 330 331 335 337 332 333 340 340 341 340 337 337 337 338 338 338 338
342 342 342 342 344 342 347 347 348 349 349 349 347 347 347 347 346 346 346 345 345 345 344 343 341 340 340 340 340 338 337 337 336 343 343 343 343 343 343 343 342 341 340 339 337 338 338 337 336 339 339 338 337 338 338 340 339 340 340 339 338 336 335 333 330 329 330 330 331 332 332 333 333 334 341 341 339 338 337 337 336 337 338 337 337
341 341 342 342 342 342 345 347 346 348 348 348 347 347 346 347 346 346 346 345 345 344 344 342 340 339 339 340 339 338 337 336 336 341 341 341 341 341 341 341 341 340 340 338 337 337 338 337 337 339 338 336 336 337 338 338 339 338 338 337 336 335 333 331 329 328 328 329 329 330 332 332 333 338 338 339 339 339 338 337 337 338 338 338 337
340 340 341 342 342 344 341 343 344 346 348 348 347 347 347 347 346 346 346 345 344 344 344 341 340 339 340 339 339 338 337 336 337 339 338 339 340 340 340 339 339 338 337 335 334 335 336 336 338 337 336 335 336 336 336 337 337 336 335 335 334 333 331 329 329 328 329 330 331 331 331 332 332 337 337 337 337 336 335 335 335 335 335 336 335
340 340 341 341 341 341 341 340 343 343 345 347 347 347 347 346 346 346 346 344 344 343 343 341 339 338 339 339 339 338 338 338 337 337 336 336 337 338 338 337 336 336 335 335 334 334 334 335 338 336 335 335 335 335 335 335 336 335 335 333 331 329 327 325 326 326 327 327 328 330 331 331 336 337 336 336 336 334 333 335 335 333 333 332 332
341 340 340 340 340 340 340 341 338 339 342 344 345 346 347 346 346 345 345 344 344 343 343 341 339 338 339 339 339 338 337 337 336 336 336 335 336 336 336 336 334 334 335 334 334 333 333 336 336 335 334 334 334 334 333 334 334 334 332 331 329 327 325 324 324 324 324 325 325 326 327 331 336 336 336 336 335 335 335 335 333 332 330 330 330
342 340 340 339 339 339 339 340 337 334 335 337 340 342 344 346 346 346 345 344 344 343 343 341 339 338 338 338 338 338 338 336 335 335 335 335 334 334 334 334 333 333 334 333 333 333 333 335 335 334 334 333 333 332 333 332 332 332 331 330 329 327 324 324 326 326 326 326 325 323 323 326 332 335 335 335 336 335 335 334 333 331 330 329 328
341 341 339 339 339 339 339 338 337 338 337 333 331 338 342 345 345 344 344 344 343 344 343 341 339 338 338 338 337 337 337 336 336 336 334 334 334 334 333 332 332 333 333 332 332 331 331 332 333 333 332 331 331 332 332 331 331 330 329 328 327 326 324 324 323 324 325 326 325 326 325 331 334 334 335 336 335 333 332 331 330 331 331 330 329
340 341 340 339 339 339 339 338 338 338 337 337 337 335 336 341 342 342 343 342 342 342 342 339 337 338 337 335 334 332 332 333 334 335 334 333 332 331 332 332 332 332 331 331 331 330 331 332 332 331 330 329 329 330 330 330 329 328 327 325 322 321 321 322 322 323 323 323 324 326 329 333 333 334 334 335 334 332 330 328 331 330 329 330 329
338 339 340 339 339 339 338 338 338 338 338 338 337 336 333 333 337 339 340 341 340 340 338 335 332 331 330 329 326 326 325 326 326 328 330 332 329 327 330 331 330 331 330 331 330 329 330 331 329 328 327 326 326 327 328 327 327 326 324 323 320 318 318 318 320 321 322 323 325 326 330 333 334 335 334 333 331 330 330 331 329 329 328 328 328
337 338 339 339 339 339 338 338 338 339 338 338 338 337 332 330 332 331 334 337 337 336 334 327 324 323 323 321 322 324 324 324 324 323 322 323 322 324 328 331 330 330 330 329 329 329 330 328 327 326 325 323 320 320 322 325 324 323 321 319 316 315 314 315 315 317 320 322 324 328 331 332 332 335 334 333 333 331 329 329 330 329 329 328 326
333 336 337 338 339 339 338 338 338 338 339 339 339 338 334 334 336 334 335 333 330 328 328 328 326 324 320 322 323 323 323 322 323 325 322 323 323 323 327 330 330 330 329 329 328 329 328 327 326 325 324 322 318 310 312 316 319 320 317 314 313 312 312 311 312 313 315 319 325 328 330 330 331 334 333 332 332 332 330 330 330 329 326 324 323
329 332 335 338 338 339 340 339 338 338 338 338 339 337 335 337 336 335 335 330 331 331 331 328 326 324 324 323 322 323 322 322 322 322 322 320 322 322 326 328 329 329 329 329 328 328 327 326 324 323 320 317 309 307 308 308 311 314 313 312 311 310 310 310 310 311 312 315 322 328 330 330 330 331 332 329 328 328 327 326 327 325 324 322 320
329 331 332 336 337 338 339 339 338 338 339 339 338 336 336 337 336 335 335 335 334 334 331 329 327 325 325 323 323 323 322 321 322 322 321 321 321 321 324 325 326 326 327 326 327 326 325 324 322 318 313 309 306 305 305 306 307 309 310 310 309 309 308 308 309 309 310 314 317 327 328 328 328 329 329 328 326 327 326 325 323 322 322 319 319
329 329 330 334 335 336 337 337 337 337 338 338 337 335 336 336 337 336 336 336 335 336 333 331 327 326 325 323 324 323 321 319 319 319 319 319 318 318 318 318 317 317 318 316 317 317 315 311 308 307 305 305 304 303 303 304 305 306 307 307 308 307 307 308 309 309 309 311 315 324 326 327 328 328 328 326 326 324 321 320 320 321 320 319 320
325 328 329 331 334 335 335 336 336 337 337 337 338 336 335 335 337 336 336 337 336 337 335 333 328 326 327 327 325 322 319 317 317 318 318 317 316 315 315 314 314 314 314 313 311 311 310 307 306 304 303 303 302 302 302 303 303 304 304 305 306 306 305 306 307 307 307 308 312 320 325 326 326 327 327 328 325 322 320 323 322 321 319 319 319
323 328 328 330 332 333 333 334 335 336 336 337 338 336 335 336 337 337 336 336 336 336 336 334 331 328 329 328 324 322 318 317 316 317 317 316 315 314 313 312 312 312 311 310 310 310 308 306 304 303 302 302 301 301 301 301 302 302 303 303 305 305 304 304 305 305 305 305 309 315 321 325 327 328 327 325 323 321 323 321 321 320 319 320 318
322 324 327 329 329 333 334 333 333 335 336 336 336 336 336 336 336 334 335 334 335 336 335 335 334 331 331 329 326 324 320 318 317 316 316 315 314 313 312 311 310 310 309 309 310 308 307 305 304 302 301 300 300 299 299 299 300 301 302 302 303 303 303 303 303 303 302 302 304 311 316 322 325 325 326 323 322 325 324 323 322 321 320 319 317
324 324 326 328 329 331 333 333 333 334 336 336 335 336 335 336 336 336 335 331 335 335 336 335 334 333 333 331 328 325 322 320 317 316 316 315 315 313 312 311 309 308 308 309 310 307 306 305 303 300 299 298 298 297 297 297 297 298 299 299 300 302 302 302 301 301 300 301 301 305 312 316 321 323 321 321 323 324 323 322 320 321 319 318 318
325 326 326 327 329 331 332 333 333 334 335 335 334 334 334 334 335 336 336 332 335 335 334 334 334 334 334 332 330 327 324 321 318 316 315 314 315 313 312 311 309 308 309 312 309 308 306 304 302 299 298 297 296 296 296 295 295 295 296 297 297 298 300 300 300 299 299 299 299 301 307 311 315 320 320 320 322 322 322 321 320 319 318 317 316
324 325 326 327 327 330 331 332 333 331 332 333 332 333 333 333 333 334 336 336 336 335 333 334 334 334 334 332 331 329 326 324 321 317 315 315 315 313 313 313 310 309 311 311 309 308 307 304 302 299 298 297 296 295 295 294 294 294 294 294 294 295 296 297 298 298 297 297 297 298 300 305 310 314 319 319 320 320 320 320 320 318 318 317 316
323 325 326 326 326 329 331 332 332 331 330 331 328 331 332 332 333 334 334 335 336 336 335 334 333 334 333 333 332 331 327 325 324 319 316 316 316 314 313 313 311 312 313 310 308 308 307 305 303 300 298 297 295 294 294 293 292 293 293 293 293 293 293 294 295 295 295 295 295 295 296 298 304 308 312 319 316 317 318 317 318 317 316 316 315
323 325 325 324 325 327 329 330 331 329 328 330 328 329 330 331 332 333 333 333 333 335 335 335 335 334 334 333 332 332 328 327 326 322 318 319 318 315 314 314 314 314 313 310 309 308 306 303 301 299 297 296 295 293 294 292 292 292 292 292 292 291 291 291 291 291 291 292 292 292 293 294 295 301 305 311 316 314 314 314 315 314 315 314 314
320 322 324 324 325 327 328 328 328 329 327 328 328 327 326 330 331 332 332 332 332 331 333 335 334 333 333 334 333 332 329 329 328 326 324 322 320 316 315 315 316 314 311 310 309 308 304 301 299 298 298 295 294 292 292 291 291 291 291 291 290 290 290 290 289 289 289 289 288 289 290 291 292 294 296 304 307 312 313 313 312 312 312 312 313
319 320 323 325 323 326 326 327 326 327 326 325 325 327 324 327 329 330 331 332 331 331 331 334 333 333 332 333 333 332 330 330 329 328 326 325 322 318 317 317 316 314 311 310 310 307 303 300 298 297 295 294 293 293 292 290 291 291 290 290 289 289 289 289 289 288 288 287 288 287 288 290 291 292 293 295 299 304 309 313 311 312 311 311 311
321 321 322 324 324 324 324 326 325 326 326 325 323 324 324 323 327 325 328 329 329 331 331 333 333 332 331 331 333 332 331 330 330 329 327 326 324 320 319 318 317 314 312 311 309 305 302 300 299 297 294 293 293 292 292 290 291 291 290 289 289 289 288 287 287 287 287 287 287 287 288 288 290 291 294 291 292 297 304 307 310 312 309 310 310
323 321 321 322 323 323 322 324 323 325 325 324 322 320 322 322 322 325 327 327 327 328 328 329 332 332 332 332 331 332 331 330 330 329 328 326 325 323 321 318 316 314 312 311 308 305 302 300 298 297 295 293 292 291 291 292 291 291 290 289 288 288 287 287 287 287 288 287 286 286 287 287 289 291 286 288 288 290 298 303 305 307 309 309 309
322 322 322 322 323 322 322 323 323 324 324 323 321 320 320 320 320 320 323 326 325 326 327 327 330 332 333 332 331 331 330 330 329 329 328 327 325 324 321 318 316 314 312 310 307 304 302 300 297 296 295 293 292 291 292 292 291 290 289 289 288 286 287 287 289 289 286 286 286 286 286 286 286 286 286 286 286 286 288 294 298 300 303 308 308
321 321 321 322 322 321 320 319 320 321 320 319 318 318 316 315 315 317 317 323 323 323 324 325 326 329 330 331 331 330 328 329 328 328 328 326 325 323 320 318 316 314 312 309 306 303 302 300 298 296 296 295 294 293 292 291 291 290 289 289 288 286 287 287 287 286 286 286 287 288 287 286 286 285 285 285 285 285 286 286 287 288 292 303 306
317 318 318 319 320 319 318 318 317 319 316 316 315 315 314 314 314 310 309 316 320 320 320 323 322 324 326 329 329 330 329 328 328 327 327 326 324 321 320 317 316 314 311 308 305 303 301 299 297 295 294 294 294 293 292 291 291 289 288 288 288 286 285 286 285 286 286 286 285 285 285 285 285 284 284 284 285 284 284 284 287 285 286 294 300
313 315 316 317 319 319 316 317 317 316 315 314 314 314 314 312 310 313 315 313 317 318 318 318 319 320 321 324 327 328 329 329 327 327 326 322 324 322 319 317 316 314 311 308 305 303 302 300 297 295 293 292 292 293 292 291 289 287 287 287 286 286 288 285 285 285 284 284 284 284 284 284 284 284 283 284 283 284 283 284 283 284 285 285 288
310 313 315 316 317 317 316 317 314 314 316 316 315 315 316 316 315 315 313 310 314 316 318 317 318 317 316 319 324 325 327 327 324 327 325 324 322 321 319 317 316 314 312 310 306 303 302 299 298 296 297 293 291 292 291 291 288 286 284 284 285 284 286 284 285 284 284 284 284 284 284 283 283 283 283 283 283 283 283 283 283 283 283 284 285
310 311 313 313 313 314 314 314 313 314 314 314 313 314 313 311 312 307 312 306 308 309 312 312 314 314 316 317 320 323 323 325 325 323 324 323 323 321 319 318 316 314 311 308 305 303 301 299 297 295 294 295 293 292 291 292 288 287 286 284 281 281 284 282 283 284 284 284 284 284 285 283 283 283 283 283 282 282 283 283 283 283 283 284 284
307 307 309 310 312 311 311 311 312 312 312 312 311 311 309 307 306 306 308 309 307 306 307 308 310 314 315 316 318 319 321 323 322 321 323 323 322 321 319 317 316 314 312 308 304 302 300 298 297 296 295 292 291 291 292 292 289 286 284 284 281 281 278 279 279 282 282 283 283 284 284 283 283 282 283 282 282 283 282 282 282 283 283 283 284
306 308 308 310 312 311 311 311 311 311 311 309 309 308 308 306 304 304 303 303 303 305 304 305 310 313 315 314 316 316 318 319 322 321 318 320 321 320 318 317 316 314 313 309 305 303 300 299 298 297 296 294 291 291 291 292 289 292 288 283 281 282 281 278 279 280 281 281 282 282 284 283 283 283 282 281 282 283 282 282 282 282 282 282 283
305 307 308 309 310 310 310 310 310 310 310 309 309 309 309 308 305 306 305 304 305 304 307 309 308 310 313 313 313 313 315 315 316 320 319 317 317 318 317 316 315 314 312 310 307 304 301 300 299 298 297 297 294 291 290 291 290 290 291 292 287 286 281 279 280 276 280 279 281 281 283 282 282 283 282 282 282 282 283 282 282 282 282 282 283
305 304 304 306 307 309 309 309 310 309 309 308 308 308 308 308 307 307 307 306 306 305 304 305 306 306 308 309 311 310 311 313 313 314 315 315 317 316 315 315 314 313 310 310 306 304 302 301 300 299 298 298 296 292 291 290 292 292 292 293 290 286 284 280 278 276 276 278 280 280 281 281 281 282 282 282 282 282 283 283 282 282 282 283 283
303 302 304 305 306 307 308 308 308 308 308 308 308 309 308 307 306 305 305 305 305 304 304 304 304 304 306 308 308 308 308 309 311 311 312 313 313 314 314 314 314 313 311 310 307 305 303 301 300 300 299 298 295 294 293 293 291 290 291 291 287 284 284 282 282 282 279 277 277 279 278 281 281 282 282 282 282 282 283 283 283 282 283 283 283
301 303 304 305 305 305 306 306 307 307 307 307 308 307 308 307 306 305 304 303 304 303 303 304 305 304 305 305 306 306 306 305 307 308 309 310 309 311 312 313 313 312 309 310 308 305 302 301 299 299 299 298 296 297 295 294 293 292 290 289 284 284 285 284 283 279 277 276 277 278 278 280 280 280 282 282 283 283 283 283 283 283 284 283 284
302 303 303 303 304 304 305 306 306 307 307 306 307 306 306 305 305 304 304 303 302 302 301 303 303 303 306 304 305 304 304 303 303 304 306 307 308 309 311 311 312 312 308 310 308 305 303 301 300 300 300 299 298 298 296 296 294 294 292 292 287 284 286 284 283 279 278 278 278 277 278 278 278 279 282 282 283 284 284 284 284 284 283 283 283
300 302 302 303 304 304 305 305 306 305 306 306 306 305 305 305 305 304 304 303 302 303 301 300 301 301 305 305 303 303 302 302 300 301 303 305 306 307 308 310 310 308 308 309 308 306 304 302 301 300 300 300 299 297 297 297 295 294 294 293 290 287 287 285 282 282 279 277 276 277 277 279 278 277 280 283 284 284 284 284 284 284 283 282 282
Wind_Speed
4 7 5 6 7 7 8 8 9 11 11 11 10 10 12 12 11 14 14 15 14 15 16 16 16 15 14 14 15 15 15 15 14 14 14 12 13 14 20 19 18 19 19 19 19 21 21 20 21 21 21 21 21 21 21 21 21 21 21 22 24 23 24 24 22 21 21 23 22 22 22 22 23 23 21 22 23 22 19 19 16 13 12 19 26
8 6 5 5 8 9 10 10 10 11 11 11 10 11 12 11 11 13 14 14 15 15 16 16 15 14 14 14 15 15 15 14 14 14 14 14 12 13 16 20 18 18 19 20 21 22 21 21 20 21 20 20 21 19 19 20 20 21 21 21 22 23 23 22 21 20 20 20 21 21 22 24 23 23 24 24 23 22 19 20 20 12 11 23 24
8 7 5 5 8 10 10 10 10 11 11 11 10 10 10 10 11 13 13 14 14 15 16 15 15 14 14 14 15 15 15 15 14 15 14 13 13 14 15 18 19 19 19 21 22 22 21 20 19 19 20 20 18 17 17 16 15 16 18 21 21 22 21 20 19 17 16 16 16 18 20 23 23 22 24 23 24 23 20 21 22 19 14 25 23
9 6 5 6 8 9 11 11 10 11 11 10 10 10 9 9 12 13 14 14 15 15 15 14 14 14 14 14 14 15 15 15 15 15 15 14 14 14 14 16 18 18 20 22 22 21 20 19 19 18 17 17 17 17 16 15 15 14 15 17 22 23 21 19 18 17 16 15 14 14 8 10 15 22 23 23 24 24 20 22 23 25 24 22 25
9 7 6 5 5 8 12 12 11 12 12 12 11 12 11 11 12 13 14 14 15 15 15 14 14 14 14 13 14 14 15 16 15 16 15 14 15 15 16 16 16 19 19 21 20 20 19 19 18 17 17 17 16 16 16 15 15 16 16 18 21 23 21 19 18 17 15 16 15 9 6 8 10 21 23 24 23 21 21 22 22 23 22 24 24
8 7 6 6 5 6 9 11 12 12 12 12 11 12 11 11 12 13 13 14 14 14 15 14 14 13 14 14 14 14 14 15 14 15 14 14 16 19 18 18 18 19 19 20 19 19 19 19 18 17 17 16 16 16 15 15 15 18 23 22 22 22 20 18 16 15 13 11 8 7 7 7 8 12 23 22 23 20 22 23 23 22 21 24 23
11 7 7 7 5 6 9 10 12 13 13 12 12 12 12 12 12 13 13 14 13 13 14 13 13 13 13 13 14 14 14 13 13 15 15 14 19 18 17 17 17 19 19 19 20 20 19 18 17 17 17 16 16 16 16 16 15 18 22 21 21 20 18 16 14 13 12 8 7 6 7 9 8 8 22 22 23 23 23 23 23 22 22 22 21
8 7 7 7 6 8 10 11 11 12 13 13 13 12 12 12 12 12 13 13 13 13 13 12 12 13 13 13 13 14 13 13 13 15 14 17 18 17 17 17 18 19 19 19 20 20 19 18 16 18 17 16 16 16 16 16 17 19 20 20 19 18 17 15 14 12 11 6 5 5 6 5 6 7 20 21 22 21 21 22 22 22 22 22 19
8 8 8 7 7 11 11 10 13 12 13 13 13 12 12 12 12 12 13 13 13 13 13 12 12 12 13 13 13 14 14 13 12 15 15 16 16 16 15 14 15 17 18 18 20 18 18 18 16 18 17 16 16 16 16 17 18 20 19 18 17 17 16 15 13 11 7 6 6 6 7 8 9 9 19 21 21 21 20 17 19 23 23 20 21
8 8 8 6 7 11 11 11 12 13 13 13 12 12 12 12 12 12 13 12 13 12 12 12 12 12 12 13 13 13 13 13 13 15 15 13 14 15 16 16 15 17 19 20 20 18 19 19 18 18 17 16 16 16 17 19 20 21 21 21 20 20 18 16 14 11 8 8 9 9 9 10 7 9 18 23 24 23 20 18 16 17 17 22 24
9 8 7 7 8 10 11 11 10 11 12 11 11 12 12 12 12 12 12 12 12 13 12 12 12 12 12 12 13 13 12 12 12 15 15 16 15 16 16 16 17 17 19 20 18 18 19 19 19 18 17 16 16 17 18 18 20 21 21 20 20 19 18 15 12 8 9 9 8 7 11 14 10 9 21 24 25 23 21 21 21 22 24 23 23
9 7 7 6 9 10 10 10 10 11 10 10 12 11 12 12 12 12 12 12 12 12 13 12 12 12 12 12 12 12 12 11 13 17 16 16 16 16 16 16 17 17 19 18 18 17 18 18 19 18 16 16 17 17 16 17 20 20 21 21 20 18 16 14 9 8 9 9 9 8 7 8 10 15 25 23 23 23 23 22 22 25 24 25 25
9 7 7 6 6 10 10 10 10 10 10 11 11 12 11 11 12 12 12 12 12 12 13 12 12 12 12 12 12 12 12 11 12 15 15 15 14 15 16 16 16 18 18 19 18 16 18 19 19 17 16 16 16 16 16 16 18 20 20 20 19 17 14 13 8 8 7 6 6 7 7 7 10 21 22 23 22 22 22 22 24 24 25 25 25
8 8 7 6 6 9 11 11 11 9 10 10 10 10 11 11 11 11 12 12 11 12 12 12 12 12 11 11 12 12 12 11 12 14 13 13 13 14 15 16 17 17 17 18 16 16 17 18 17 16 16 16 16 16 16 16 16 19 19 18 16 15 12 10 9 7 7 7 8 8 6 7 11 21 22 22 22 22 20 22 23 24 24 24 24
10 9 8 6 6 6 10 11 10 9 8 10 10 11 11 11 11 12 13 12 12 12 13 12 12 12 11 11 12 12 12 11 11 11 12 12 12 13 13 15 15 15 17 17 16 15 16 18 15 16 15 15 15 16 17 17 17 16 15 14 13 13 12 7 6 6 6 5 4 6 8 8 18 21 22 21 21 21 21 23 23 24 23 23 22
11 10 9 7 6 6 6 9 10 10 8 8 9 9 10 11 10 12 13 12 13 13 13 13 13 12 12 12 12 12 12 12 11 11 11 11 12 11 12 12 13 14 16 16 15 15 15 15 15 14 14 15 15 16 17 18 17 16 15 14 13 13 12 7 5 6 5 5 5 5 5 8 19 21 21 22 21 22 23 24 24 22 21 21 22
10 10 10 8 7 6 6 6 7 10 9 8 8 9 9 10 10 11 12 11 12 13 13 13 13 13 13 12 12 11 10 11 11 12 12 12 11 11 12 12 12 13 15 15 15 15 15 15 14 14 14 15 16 18 18 19 18 17 16 16 15 14 13 9 7 6 6 6 4 4 6 6 14 20 21 22 23 23 24 25 23 22 22 23 23
10 10 9 9 7 6 6 6 6 6 5 6 6 8 9 9 10 11 11 10 11 12 13 13 12 12 12 11 10 10 10 11 11 12 13 13 12 10 12 12 13 13 14 15 15 15 15 14 13 14 15 16 18 18 18 18 18 17 16 15 13 14 14 11 6 6 6 5 5 4 3 11 19 20 22 23 24 24 23 22 22 22 22 23 23
8 9 9 9 8 7 7 7 6 6 6 5 4 6 9 9 9 10 11 10 11 12 12 12 12 11 10 11 11 10 9 10 10 11 11 12 11 10 11 11 12 13 14 15 15 15 15 14 13 15 16 18 19 18 18 18 17 17 16 14 14 14 14 8 6 7 6 6 6 6 9 16 18 20 22 24 23 23 20 20 23 22 22 22 22
6 8 8 7 8 8 7 7 6 6 5 5 5 5 7 10 9 10 10 10 11 11 12 12 12 12 11 12 12 10 10 9 11 9 12 12 11 9 10 10 12 13 14 15 15 15 15 14 15 16 17 18 18 18 17 18 17 17 15 13 14 14 8 6 6 6 6 6 6 6 10 16 21 20 21 25 22 21 22 23 22 21 21 22 23
4 6 7 7 8 8 8 7 7 7 7 6 5 6 6 9 8 9 10 10 11 12 12 13 11 11 11 11 10 8 6 6 7 7 10 8 11 12 11 12 13 14 14 15 15 15 15 15 16 16 16 16 13 15 16 16 16 16 14 14 14 9 7 7 7 5 5 5 5 6 13 17 21 23 23 23 24 24 22 21 21 22 23 23 24
6 6 5 6 8 8 9 8 7 8 7 7 5 5 5 6 6 6 5 7 10 11 10 8 8 7 11 8 6 6 6 5 6 7 6 8 9 12 12 13 14 13 14 15 16 16 16 16 16 15 15 13 11 8 8 11 15 13 14 15 10 7 7 7 7 6 6 5 6 10 17 20 22 24 25 25 25 25 24 24 24 24 24 24 22
6 6 6 7 7 8 8 9 8 8 8 7 6 6 7 5 6 6 6 7 8 9 8 8 7 7 7 7 6 6 6 6 5 6 6 9 10 11 12 12 13 12 14 15 16 16 16 16 14 13 13 12 8 7 7 6 8 13 12 10 7 7 7 8 7 6 6 5 3 13 15 20 22 22 23 23 23 21 20 20 21 23 21 21 18
8 7 7 6 7 7 8 8 8 9 8 7 6 6 6 6 6 5 6 6 7 7 7 7 7 7 7 7 6 6 6 6 8 12 10 7 8 10 11 12 12 12 14 10 13 14 14 13 12 11 8 6 6 6 6 6 6 6 7 7 7 7 8 6 6 6 7 7 4 12 16 19 20 21 20 19 19 21 22 21 20 20 19 18 18
7 5 6 7 7 7 7 7 7 7 8 7 8 7 6 6 6 6 6 6 6 7 7 6 7 7 7 6 6 6 5 5 6 6 6 7 7 6 6 5 5 5 7 6 6 6 6 6 7 7 6 6 7 6 6 7 6 7 7 7 7 7 6 6 6 6 6 6 9 10 12 16 18 20 19 18 20 19 18 17 19 20 19 18 19
6 8 9 8 7 7 8 6 7 7 8 8 8 7 8 7 7 7 7 6 7 7 7 6 7 7 6 6 7 7 7 6 5 6 5 6 7 6 6 6 6 6 5 6 5 4 5 6 6 7 6 6 7 6 6 6 6 6 6 6 7 7 6 6 6 6 5 7 10 14 14 15 17 18 19 21 19 17 16 21 21 19 19 19 19
8 9 8 7 8 7 7 7 7 8 9 8 7 7 7 7 7 7 8 7 7 7 8 7 7 8 6 7 8 7 7 7 6 6 6 6 6 6 6 6 6 6 6 6 5 5 6 6 6 6 6 7 7 7 7 6 6 7 6 6 7 7 6 6 6 6 6 7 9 19 11 15 19 20 19 19 17 16 18 18 18 18 19 18 18
5 7 8 8 9 11 10 8 7 8 7 7 8 8 7 8 8 8 8 8 9 7 7 8 8 8 7 8 9 8 8 7 7 6 6 6 6 6 6 6 6 6 6 5 5 6 6 6 6 5 7 6 8 7 7 7 6 6 6 5 6 7 6 6 6 7 6 6 8 15 16 12 13 16 17 16 16 18 17 20 18 18 17 17 17
9 8 8 9 10 10 10 11 8 9 8 7 8 7 7 7 8 8 8 8 8 8 8 8 8 8 7 8 9 9 8 8 8 7 6 7 6 6 6 6 7 7 6 4 6 6 6 6 6 5 5 6 6 7 7 7 6 6 6 6 5 6 6 6 7 6 6 6 7 12 17 18 14 13 13 14 17 17 17 17 17 17 16 16 16
13 11 9 9 9 10 11 12 11 9 9 8 7 8 8 8 8 9 8 9 8 8 8 8 7 8 8 8 9 9 9 9 9 8 8 8 7 7 6 6 7 7 6 6 6 6 7 7 6 5 6 6 6 6 7 7 7 6 5 6 6 5 5 7 6 6 5 6 6 8 16 17 18 14 11 14 15 15 16 16 17 16 16 15 15
10 11 11 10 9 10 11 11 11 9 8 9 8 9 8 8 8 8 8 9 8 8 7 8 7 7 8 8 9 9 9 9 9 9 8 8 7 8 7 7 7 6 5 6 6 7 6 7 7 7 6 6 6 5 6 7 6 6 5 6 6 5 5 6 6 6 7 6 6 6 10 15 17 17 17 13 14 15 14 15 15 15 14 14 14
11 13 11 9 9 13 12 11 11 10 9 9 8 9 9 9 8 7 8 8 9 8 8 8 8 8 8 9 9 8 9 9 10 10 10 9 8 8 8 8 8 7 5 6 6 7 7 6 7 7 7 6 6 5 5 7 6 6 6 6 5 6 5 5 6 7 6 7 6 7 7 8 14 19 18 17 11 13 14 13 14 14 13 13 12
9 11 10 10 12 12 12 12 11 11 11 11 9 9 9 8 8 8 8 8 8 8 8 8 8 8 8 9 9 9 9 9 10 11 10 10 9 9 8 8 8 7 6 8 8 7 7 7 7 7 7 7 7 6 5 6 7 6 6 5 5 6 5 5 6 6 7 6 7 6 7 6 7 11 17 19 18 11 11 10 12 11 12 12 12
8 7 8 11 10 8 9 9 11 12 11 9 9 8 8 8 8 8 8 8 8 8 8 8 8 8 8 10 10 10 9 9 10 11 10 9 9 10 10 9 8 7 7 8 8 7 8 8 8 7 7 8 7 6 6 7 5 6 6 5 5 5 5 6 6 6 6 6 6 7 6 6 6 6 7 15 18 20 12 12 11 10 10 9 10
6 7 12 12 9 10 9 9 11 11 10 9 10 10 7 8 8 8 8 9 8 8 7 7 7 8 8 9 10 10 10 9 10 10 10 9 9 9 10 9 8 8 8 8 9 7 8 9 8 9 7 6 6 5 6 6 6 7 5 5 5 5 5 6 5 6 6 6 7 6 6 6 6 6 6 6 11 15 19 19 10 10 10 10 10
12 11 10 9 11 10 10 10 10 12 11 10 8 9 9 8 8 7 7 8 8 8 8 8 7 7 7 8 10 10 10 10 9 10 10 9 9 8 8 8 9 9 8 8 9 9 8 8 7 10 10 7 8 6 5 7 6 7 5 5 5 5 6 5 6 6 5 6 6 6 6 6 6 6 6 6 6 9 17 16 18 16 7 9 8
12 10 11 10 10 11 11 11 13 13 11 10 8 7 8 8 7 8 8 7 7 7 7 6 7 8 8 8 8 9 10 9 10 10 10 10 9 9 7 9 9 10 9 9 9 9 10 9 8 7 9 9 8 8 6 6 6 6 6 6 5 5 5 5 5 5 5 7 5 5 5 5 5 6 6 6 5 6 10 16 16 17 15 7 7
10 12 12 13 13 11 11 12 11 12 11 11 9 8 8 8 7 7 8 8 8 7 7 7 8 8 8 9 9 8 9 9 9 9 8 9 9 10 9 11 10 10 10 9 9 9 9 10 10 7 8 10 9 9 8 6 5 6 6 5 5 5 5 5 5 4 6 6 5 5 5 5 5 5 6 5 5 6 6 10 13 14 16 13 8
9 11 11 10 9 9 9 10 10 10 9 9 8 7 6 5 5 7 7 8 7 7 7 8 7 7 8 8 10 9 9 8 10 10 9 8 8 7 9 10 10 9 9 9 8 9 9 9 11 9 7 7 10 9 9 7 7 6 6 5 5 4 4 4 5 5 6 5 5 4 5 6 5 4 5 5 5 4 5 5 5 5 6 14 12
9 10 10 10 10 9 8 8 9 9 7 6 7 7 7 7 7 4 4 7 7 7 7 8 6 7 8 8 8 8 9 9 8 10 11 10 9 7 8 7 9 11 12 11 10 10 13 12 10 13 11 7 6 8 9 10 9 9 6 6 4 3 4 4 4 4 4 4 5 5 6 4 6 4 4 4 5 4 4 4 4 5 4 7 11
8 10 11 11 12 13 11 12 10 9 9 9 8 9 9 6 5 9 10 7 7 7 7 6 6 6 7 7 7 7 9 9 9 9 10 9 8 9 10 9 7 8 10 13 13 13 11 11 10 9 14 12 8 8 8 10 12 7 5 5 5 3 3 4 4 3 4 4 4 6 4 6 4 5 4 4 4 4 3 3 4 4 4 4 5
9 10 13 15 13 11 12 12 8 9 11 11 10 9 10 11 11 11 7 6 7 8 8 7 7 6 5 5 6 6 7 9 8 9 10 11 9 7 10 12 10 9 9 9 10 10 12 11 11 7 3 12 11 11 10 11 5 9 9 4 3 3 2 4 4 3 3 3 4 5 5 5 5 5 4 5 4 4 3 3 3 3 3 4 3
11 11 10 7 6 8 9 8 9 10 10 10 9 11 8 6 6 4 7 3 1 3 4 5 5 6 6 5 5 6 6 7 8 8 9 10 11 10 9 10 12 11 9 7 9 11 12 15 16 14 10 3 6 9 12 10 8 6 6 8 3 3 1 1 1 2 2 2 3 4 4 5 5 5 5 5 4 4 3 3 3 3 3 3 3
6 5 6 9 7 8 7 8 9 9 8 9 9 5 5 3 3 3 4 5 5 3 3 4 5 6 7 7 6 6 7 7 6 7 9 10 11 12 10 10 11 11 13 12 11 12 12 12 13 13 15 13 9 12 13 9 8 14 7 3 4 3 2 7 4 1 1 2 3 4 4 4 5 4 5 5 5 4 3 3 3 3 3 3 3
8 9 9 10 9 11 10 10 10 10 8 7 7 6 6 5 4 4 4 4 3 4 4 4 6 6 6 7 9 7 7 8 8 8 7 9 11 11 11 11 12 12 11 13 14 15 15 15 16 13 14 15 13 10 12 9 10 8 10 8 2 1 6 3 7 1 1 2 1 3 4 4 5 5 5 5 4 5 4 3 3 3 3 3 3
8 9 8 8 7 8 8 8 7 8 9 8 8 8 8 9 7 8 8 7 8 7 12 13 10 10 10 5 5 7 7 7 7 10 11 8 9 10 10 11 13 13 11 11 11 10 11 11 14 15 15 11 15 14 13 10 9 11 6 1 5 8 8 6 9 6 0 1 3 3 4 4 4 5 5 5 5 4 4 4 3 3 3 3 3
9 5 5 6 7 7 7 8 8 7 6 6 8 8 8 8 10 9 7 9 9 7 2 2 6 5 4 6 6 5 6 7 6 6 7 9 10 10 10 10 9 9 8 10 11 13 13 14 13 12 13 10 9 12 14 14 5 9 8 5 3 1 12 12 6 6 3 2 2 3 3 4 4 4 5 5 5 5 4 4 4 4 3 3 4
7 5 6 6 7 8 7 8 6 7 6 7 9 9 9 8 8 7 7 7 8 7 5 4 3 4 5 5 5 5 5 5 6 5 5 6 7 8 9 10 10 10 11 11 13 12 11 10 11 13 11 10 13 15 14 11 14 13 11 5 1 3 9 4 10 12 7 8 6 3 2 5 4 4 5 6 6 6 6 5 5 4 5 3 4
5 8 8 7 6 6 6 6 7 7 7 9 10 8 9 10 9 8 8 6 6 6 5 5 5 5 6 4 6 6 5 5 5 6 5 6 7 8 8 8 9 9 9 10 11 13 16 15 13 10 11 10 12 12 13 14 12 11 10 4 4 5 3 2 7 5 5 5 1 7 5 1 2 4 5 5 6 6 6 6 5 5 5 5 4
7 6 5 5 6 5 7 8 8 8 7 8 9 9 9 9 9 9 10 8 6 5 5 7 6 6 8 7 7 7 7 6 6 5 6 6 7 7 8 9 9 9 10 11 11 12 12 13 15 15 15 14 11 11 13 13 14 11 11 9 7 4 3 3 3 4 3 3 8 10 9 11 10 8 6 7 7 7 6 6 6 5 5 5 5
5 5 6 6 6 6 7 8 8 7 8 9 10 10 9 9 10 10 10 10 8 8 7 7 6 6 8 8 7 7 6 6 5 6 6 6 7 7 8 8 8 8 10 10 11 12 12 12 12 13 13 15 12 13 11 10 10 9 10 9 11 13 12 9 10 7 6 4 4 3 4 9 8 4 7 6 6 6 6 6 7 6 6 5 5
Wind_Direction
159 133 138 133 125 121 120 108 115 102 98 93 96 98 96 98 99 87 85 83 82 79 76 75 73 71 70 68 69 73 79 82 83 85 88 84 77 87 85 75 75 74 74 75 75 72 73 73 72 71 73 76 79 80 81 81 81 83 84 83 80 79 78 77 75 72 71 71 72 73 74 74 74 73 74 70 67 66 64 63 61 59 60 61 63
142 134 134 141 135 127 127 128 118 111 104 106 106 105 100 103 96 90 87 84 81 79 77 78 74 73 73 71 73 76 80 84 84 82 81 84 87 78 83 78 79 79 75 74 72 70 67 69 72 75 79 80 83 83 82 82 81 82 83 83 84 83 80 79 77 75 74 73 74 73 74 77 76 75 74 71 70 68 68 68 66 65 66 64 62
122 126 134 133 128 127 123 120 118 116 111 113 114 103 102 106 100 95 90 87 82 79 79 79 79 77 76 75 76 79 82 80 81 84 88 89 76 73 74 83 77 74 76 74 71 71 71 71 73 75 81 84 80 76 72 66 65 71 80 86 88 83 80 78 74 70 67 66 67 69 70 73 76 77 76 74 73 69 67 69 69 67 69 68 65
124 126 125 121 123 125 128 128 130 124 127 129 118 112 109 114 102 99 93 88 85 84 84 82 82 80 79 79 78 81 84 86 87 87 85 88 86 80 77 76 81 78 75 75 73 72 74 75 74 76 78 77 76 69 63 60 60 62 70 82 84 85 84 78 72 68 66 69 74 74 69 73 73 76 77 77 76 73 69 68 69 70 69 69 69
124 128 126 121 123 128 132 136 137 132 130 126 123 119 121 114 106 103 97 91 89 88 87 83 82 83 85 84 79 76 81 88 87 91 94 88 88 85 71 69 79 81 78 76 76 77 75 76 78 79 79 75 70 66 62 60 60 65 77 85 88 87 85 81 77 71 66 70 71 67 63 77 83 80 80 79 78 77 75 75 73 72 71 71 71
132 134 129 124 122 128 131 135 134 134 133 127 124 123 123 112 107 103 98 94 93 93 90 91 91 90 90 88 85 81 82 87 93 92 88 91 85 79 82 82 81 81 79 81 82 80 78 76 80 83 80 73 67 62 59 58 60 69 83 87 89 89 88 84 79 74 70 64 56 60 59 62 75 80 81 81 80 78 78 77 77 78 76 74 73
137 140 131 130 130 135 136 135 134 134 132 128 129 125 125 113 109 105 101 98 95 94 94 95 95 94 93 92 92 89 85 86 90 93 98 98 85 84 85 85 86 88 87 85 82 79 76 76 83 84 79 70 63 58 56 58 63 76 85 86 86 89 89 88 84 79 77 71 69 64 68 72 73 80 83 83 82 81 80 79 78 76 76 75 74
138 138 134 133 134 141 136 136 134 133 131 133 130 129 121 116 112 108 102 102 101 97 97 97 98 98 97 96 96 95 93 91 91 95 95 92 88 88 91 94 92 89 87 86 83 78 79 82 85 85 76 67 59 55 55 59 72 79 84 87 88 85 84 83 82 78 69 62 51 51 52 45 57 73 84 85 82 76 75 78 78 78 73 65 62
143 134 131 131 137 140 138 141 140 137 133 133 131 128 121 115 113 111 108 105 103 102 101 100 101 101 100 98 97 97 99 99 97 100 101 91 89 93 92 88 90 92 92 88 84 81 83 86 89 88 75 64 58 55 54 57 72 82 82 77 70 68 64 60 56 56 57 53 54 56 61 67 73 80 85 83 79 75 72 69 71 75 76 75 76
135 126 128 130 138 139 138 141 140 138 136 135 132 128 121 118 119 118 117 112 108 108 105 103 102 102 101 100 99 98 99 101 100 93 97 96 96 89 82 78 85 93 92 88 85 86 87 90 93 90 76 64 57 55 56 62 73 74 73 72 71 68 64 62 62 59 58 55 58 67 73 80 80 86 89 87 84 80 76 75 79 79 78 75 75
124 128 125 127 136 138 140 138 138 138 138 135 133 127 125 123 123 123 122 118 115 112 109 107 104 102 103 103 103 102 102 102 102 102 94 85 88 89 87 85 86 91 92 88 88 89 90 94 98 88 72 63 58 57 57 61 75 75 74 74 72 69 67 62 61 62 59 60 59 61 76 79 80 85 89 88 86 83 81 79 79 78 76 75 74
119 123 123 128 136 139 137 135 134 133 133 138 133 130 126 127 128 129 125 121 118 113 110 108 108 106 106 107 105 106 104 104 103 94 96 97 94 92 93 97 98 92 87 89 90 90 92 97 96 83 68 63 58 56 58 64 75 79 78 77 75 72 70 67 67 65 62 60 62 66 63 73 85 88 86 85 86 83 79 79 77 77 73 73 73
119 123 124 128 132 137 136 137 133 136 141 139 139 134 132 131 130 128 124 123 119 113 110 109 108 108 108 108 107 107 106 105 105 100 101 102 99 99 101 98 93 90 91 91 91 93 96 99 95 77 69 64 60 58 60 70 79 83 83 82 81 78 76 73 71 69 67 66 65 66 72 79 86 88 87 86 82 82 81 76 71 68 68 68 67
124 127 128 129 131 136 134 136 139 143 144 142 140 137 136 134 132 129 127 127 122 117 113 113 113 112 111 112 112 109 110 107 108 107 104 102 104 105 101 94 92 93 94 93 94 97 100 101 88 77 72 66 62 61 65 74 85 90 86 82 80 81 76 75 70 71 74 76 78 78 77 83 85 85 85 85 84 83 82 79 75 72 70 69 68
134 135 132 128 130 131 131 134 139 137 137 140 141 145 143 139 136 135 133 132 127 123 119 116 116 115 115 115 114 113 112 108 103 110 115 110 112 111 103 98 95 96 96 96 100 100 104 102 85 80 76 69 64 62 63 70 81 85 83 79 77 78 75 73 69 70 71 69 74 87 88 85 86 87 86 87 87 87 85 81 78 76 76 74 74
138 137 134 134 132 132 129 132 135 140 141 140 145 148 148 145 144 143 140 139 133 128 124 121 120 120 119 116 115 115 114 110 106 103 104 105 103 105 110 104 104 100 98 101 102 103 107 98 85 80 75 68 62 59 59 63 67 71 72 70 66 64 61 59 62 54 52 48 51 65 84 99 96 91 88 87 88 89 86 85 82 79 78 79 80
132 136 137 139 139 134 134 134 138 141 141 140 144 152 151 149 148 143 146 144 137 133 130 127 123 123 122 120 116 111 110 112 110 106 104 103 102 103 98 100 103 106 104 107 106 104 105 98 84 80 71 64 60 59 65 69 71 73 71 70 68 68 66 58 56 53 50 45 42 46 80 85 93 96 93 94 95 90 87 84 83 83 81 80 80
133 139 142 145 143 141 139 134 134 135 134 133 137 142 147 146 142 141 144 146 141 137 132 130 126 122 118 115 113 111 112 108 105 105 104 100 97 96 108 113 110 108 108 105 105 105 105 98 83 77 68 63 61 64 67 69 70 67 65 64 63 65 65 62 59 56 53 51 54 53 52 89 89 96 101 96 88 86 87 89 87 86 84 82 80
137 140 144 149 151 147 146 146 148 148 146 139 135 139 147 148 142 140 147 150 142 137 131 122 120 118 116 116 109 102 96 93 88 89 92 98 100 100 106 110 112 110 111 110 108 107 103 97 80 72 65 63 61 62 64 66 66 66 65 62 59 55 54 54 54 51 48 42 42 61 81 91 100 99 100 94 90 88 88 84 83 80 80 80 79
130 141 148 156 154 155 153 153 157 156 157 154 149 140 148 149 146 140 145 147 140 131 127 125 123 119 117 115 111 106 100 95 93 92 99 96 97 98 96 104 114 116 116 114 113 113 109 92 82 74 67 61 57 54 59 65 64 63 61 59 56 52 48 43 44 45 47 49 54 70 88 106 105 101 96 93 93 90 84 82 82 84 82 80 75
126 142 150 158 158 156 160 159 165 162 162 159 156 150 147 137 135 133 138 145 138 135 129 124 121 120 117 116 111 109 108 102 97 101 97 103 104 104 110 116 119 120 119 118 118 115 108 98 89 82 73 63 54 52 54 59 62 61 57 56 52 47 39 38 37 34 30 43 55 77 91 90 90 88 84 87 89 83 81 83 84 82 80 77 74
150 153 151 153 159 161 163 167 169 168 166 163 159 152 148 143 136 135 129 134 133 133 133 135 133 132 125 121 120 119 113 106 106 105 103 105 106 108 111 117 120 119 122 123 122 120 111 102 95 86 74 66 60 59 56 55 58 59 58 56 51 44 36 35 32 32 24 8 69 85 90 91 90 85 82 81 82 83 82 77 77 76 73 70 70
168 168 170 161 163 160 163 168 175 170 164 161 156 153 158 151 146 149 138 140 145 146 145 143 145 145 139 134 131 125 122 117 113 112 109 105 106 107 112 118 122 120 125 126 127 120 111 105 95 82 78 71 65 62 62 61 62 60 59 57 55 48 43 38 34 29 19 9 50 102 96 91 85 85 83 81 81 79 76 77 72 71 70 71 72
176 179 170 163 161 165 168 170 173 170 161 160 152 154 162 157 151 153 149 148 153 155 152 153 153 154 147 142 135 131 123 119 114 112 110 106 102 102 108 114 118 123 126 127 123 118 110 96 84 77 69 68 69 65 67 65 68 67 66 64 62 53 47 40 38 27 20 11 345 87 86 86 87 86 88 90 88 85 83 79 73 71 76 82 78
174 166 163 176 170 167 173 176 178 170 164 162 157 163 163 160 158 159 158 156 162 162 160 159 160 160 153 145 140 129 122 125 125 118 117 119 116 115 111 109 109 106 110 113 117 110 89 84 83 78 81 82 77 67 70 74 69 70 70 71 69 61 53 44 41 37 27 20 4 70 82 92 92 94 95 93 92 86 84 82 81 80 82 81 79
165 176 187 173 179 175 173 180 179 177 171 166 167 165 163 169 170 165 168 165 169 167 163 165 168 169 165 148 134 132 132 130 131 128 126 129 127 129 129 130 126 128 132 129 131 111 84 94 94 94 92 90 88 82 72 76 81 74 72 73 75 70 59 49 48 42 30 26 22 34 84 86 92 93 95 97 92 94 92 86 81 82 83 80 78
183 193 183 185 177 180 179 180 181 177 177 170 163 163 176 177 174 167 171 174 175 169 169 170 177 178 165 148 144 146 142 142 138 140 140 139 139 140 140 141 140 142 153 145 134 106 110 105 102 103 105 99 92 88 82 75 76 84 75 74 80 77 68 60 53 48 33 31 25 30 36 94 94 99 105 101 96 92 94 90 88 86 82 82 82
182 193 187 185 184 188 183 182 184 176 176 174 168 171 176 172 174 165 177 174 175 179 174 175 176 184 169 159 153 152 151 150 152 151 154 148 150 151 148 143 145 153 161 144 116 116 116 109 108 105 103 100 102 96 90 83 76 76 83 71 78 84 76 68 63 51 43 31 36 27 30 36 104 98 99 93 95 99 95 92 91 88 87 86 83
201 196 191 185 191 188 183 188 186 177 176 174 174 175 177 176 171 174 181 177 183 182 180 177 177 185 173 163 157 157 159 157 159 161 160 160 156 157 157 155 156 165 164 139 132 128 118 114 108 104 99 102 101 99 98 89 84 72 79 76 62 75 79 71 64 56 44 45 32 27 28 28 35 98 92 102 100 100 98 95 94 91 88 86 84
200 195 189 194 187 186 188 193 191 182 176 176 176 173 178 180 181 178 179 176 188 185 179 182 182 177 180 167 169 164 165 163 162 163 163 169 163 161 161 164 166 174 162 145 149 132 128 119 108 99 100 101 98 100 101 97 86 79 71 80 62 50 72 77 68 60 54 46 40 30 28 29 30 29 108 102 103 100 100 98 97 93 93 90 87
187 194 194 194 185 184 192 192 194 187 179 182 178 178 177 184 183 182 176 180 183 183 185 186 182 183 182 172 175 171 166 166 164 166 170 168 168 166 168 165 173 184 163 149 149 133 128 126 127 123 115 109 100 99 103 98 94 83 77 77 75 62 60 68 75 67 60 50 46 43 25 28 27 29 23 100 106 108 100 102 99 100 97 95 95
190 196 193 185 180 188 188 189 190 188 185 186 176 179 182 186 184 179 185 181 175 183 185 187 190 185 179 181 179 178 172 172 168 169 170 171 169 172 171 171 179 183 158 152 141 129 123 118 117 116 117 110 105 95 96 103 95 94 90 84 81 77 61 69 73 71 66 58 52 43 40 26 27 29 24 23 91 101 111 104 103 100 97 96 92
205 192 181 176 185 184 184 188 187 188 189 190 182 182 180 181 183 185 181 179 179 178 184 188 190 188 183 183 186 182 179 174 175 173 174 175 170 172 175 180 180 176 155 150 137 125 121 119 113 116 111 108 104 97 92 93 101 98 92 87 85 78 73 69 72 65 67 61 54 46 45 36 30 29 26 30 28 78 91 91 106 101 108 106 100
188 189 173 181 181 180 182 182 187 188 190 191 188 182 182 182 182 181 179 178 180 180 187 188 187 187 186 187 186 186 183 181 174 178 176 176 174 175 176 178 176 165 152 148 142 137 131 130 131 122 121 119 117 117 109 98 93 95 91 95 85 88 86 75 69 74 71 67 54 54 44 44 41 34 31 29 32 28 48 104 100 101 99 90 95
172 184 190 186 172 179 179 185 186 190 188 189 189 192 180 182 182 181 182 180 182 183 182 187 188 189 185 189 188 186 186 181 181 176 180 176 173 178 177 174 163 155 155 156 143 139 137 139 140 126 121 116 115 113 112 112 113 102 98 97 95 92 78 85 77 74 73 68 65 53 52 49 45 48 37 41 26 26 32 33 66 111 106 108 106
191 189 189 179 183 181 182 185 186 192 195 193 189 188 181 176 182 180 180 181 180 185 184 185 187 188 188 187 190 186 186 183 182 178 179 180 175 177 175 157 161 156 155 154 145 145 144 140 144 140 133 129 122 117 114 113 109 104 98 89 92 87 92 84 87 85 83 77 69 66 57 57 56 54 51 45 35 28 32 33 31 19 97 113 109
193 181 182 182 184 185 185 185 188 193 194 195 189 187 182 177 171 176 178 180 183 187 186 179 183 190 191 192 194 187 188 184 185 180 177 181 180 175 163 161 160 157 158 156 154 150 147 145 145 150 139 137 130 125 115 111 107 101 97 96 87 93 88 98 97 102 91 84 80 73 71 58 58 52 52 42 45 35 28 37 29 26 18 68 76
192 187 184 182 186 183 188 190 189 190 190 191 188 185 187 181 174 169 174 185 191 188 185 180 187 189 190 195 193 190 188 182 181 182 180 183 182 178 168 164 164 161 159 158 155 148 147 149 144 146 142 138 139 135 125 112 106 99 89 87 88 86 97 95 102 95 98 99 87 86 84 77 66 60 52 52 52 45 43 31 33 27 28 31 92
190 189 185 187 180 184 185 190 184 185 185 182 182 179 173 182 184 170 176 191 195 194 186 190 188 183 190 194 191 191 191 184 179 177 179 180 181 176 169 169 161 156 149 149 147 149 149 155 149 137 126 131 137 136 135 127 109 92 81 59 71 82 93 96 91 98 96 108 111 103 87 76 81 70 68 63 57 58 49 42 37 34 21 43 48
187 185 187 185 187 185 187 184 188 181 167 168 166 172 172 180 186 200 187 197 193 191 198 196 182 189 187 185 193 192 188 186 185 179 175 176 176 168 165 167 171 163 158 156 159 160 162 157 155 142 132 118 118 133 131 118 94 90 84 69 53 67 77 93 93 98 105 105 109 100 97 94 89 84 79 79 74 73 65 53 53 41 37 37 44
188 184 185 191 191 189 181 192 191 174 169 173 179 176 182 187 199 200 206 187 187 187 190 191 190 192 187 184 181 194 190 188 185 180 175 171 180 168 160 165 175 170 165 171 171 167 159 153 146 148 143 135 136 143 139 127 121 88 77 69 57 35 60 73 76 83 104 119 111 111 115 101 101 92 96 86 84 78 78 70 63 62 61 59 35
205 189 191 195 194 186 188 194 176 186 188 187 185 186 191 195 191 200 187 168 175 182 193 191 192 189 185 183 183 191 195 186 192 185 173 168 171 176 169 168 170 178 179 173 165 151 144 138 138 122 150 150 154 163 157 135 140 151 142 130 60 41 43 59 72 64 93 108 127 120 124 121 117 120 103 94 86 93 92 94 87 79 74 81 70
190 192 197 186 188 189 195 188 188 190 197 191 181 195 196 191 187 185 172 158 167 173 165 173 175 186 191 186 190 191 200 200 191 192 179 175 173 172 181 174 174 172 168 159 155 158 161 159 162 156 151 150 139 169 175 185 140 132 109 103 176 142 214 51 45 84 98 113 121 122 128 124 140 133 127 109 108 108 112 113 106 97 90 94 95
176 188 185 188 189 193 192 191 195 196 195 196 193 186 164 143 122 128 154 144 176 158 143 145 167 176 197 192 200 202 204 203 193 194 193 183 180 181 177 180 182 179 173 165 169 172 170 169 169 167 156 151 170 184 196 190 153 139 157 186 170 134 148 233 182 200 142 137 130 145 138 139 137 134 122 128 138 136 136 130 119 122 113 111 115
190 191 191 191 193 195 194 190 191 194 193 185 178 152 131 130 104 68 85 82 63 138 154 195 191 188 181 195 203 195 209 221 212 194 196 191 183 182 181 181 181 182 179 171 173 179 180 177 173 165 173 166 172 182 194 201 187 189 138 131 92 260 219 172 127 255 144 121 196 163 168 160 149 152 141 150 150 150 148 136 139 124 124 123 122
198 203 196 195 188 195 192 191 191 191 188 179 168 157 167 164 159 159 170 183 193 183 197 199 191 191 198 183 186 193 198 203 212 208 191 187 190 184 183 183 184 179 177 176 173 166 177 178 181 177 183 186 171 170 184 208 196 219 233 290 175 176 170 182 143 211 62 234 192 187 182 186 168 154 154 152 158 166 161 159 155 150 150 138 141
211 193 191 199 198 193 193 189 189 188 179 169 164 163 170 180 185 191 192 197 202 223 237 200 191 207 170 185 197 194 197 199 204 202 190 184 184 183 181 183 183 178 173 166 171 178 183 186 183 186 187 166 151 173 183 188 179 243 242 234 230 189 137 136 192 93 175 260 216 195 217 210 189 163 169 174 170 167 180 169 169 168 164 158 147
195 175 197 199 197 196 187 191 184 179 176 165 172 174 176 180 186 194 193 199 205 212 201 202 181 172 190 196 187 204 201 213 202 200 197 184 185 185 184 183 184 182 174 179 178 178 181 192 194 191 179 175 173 173 183 181 182 206 208 200 81 120 145 108 152 166 152 169 219 255 276 219 199 198 186 184 181 181 182 182 174 178 175 175 162
179 193 195 199 197 191 187 180 183 178 179 172 170 179 178 181 186 185 199 209 199 200 189 191 182 178 191 188 191 199 205 211 213 201 196 187 185 189 188 188 185 182 181 183 183 180 182 180 184 185 187 190 190 187 177 188 197 196 171 182 138 144 135 62 131 97 138 128 171 187 197 241 263 242 210 195 193 187 188 185 182 178 182 180 180
197 194 197 188 192 181 183 183 190 182 177 173 171 177 180 175 183 190 197 199 189 187 175 189 191 182 198 193 195 196 200 202 203 202 194 192 187 190 194 193 190 183 183 187 183 183 186 187 187 188 190 190 194 196 193 192 197 194 190 163 149 135 109 96 158 121 73 110 162 194 189 173 198 221 194 201 197 196 189 185 187 185 189 186 184
194 189 192 191 188 184 184 189 191 177 175 178 176 180 182 183 189 190 194 194 191 182 183 194 189 189 200 197 200 203 195 199 192 199 196 190 193 193 194 195 192 189 187 186 186 184 186 186 191 196 197 197 196 199 204 205 197 189 181 175 173 170 173 173 178 187 154 141 84 165 172 198 198 170 219 193 193 196 190 188 192 195 188 191 188